Location: ???????
(55.7060°N, 38.1338°E)
Time: 12:26:48
(UTC+00:00)

Daily predictions for brighter satellites

Satellite Brightness Start Highest point End
(mag) Time Altitude Azimuth Time Altitude Azimuth Time Altitude Azimuth
Cosmos 1805 Rocket 3.7 13:49:32 10° N 13:53:49 50° ENE 13:58:05 10° SSE
Cosmos 1743 Rocket 3.8 13:50:21 10° NNW 13:54:45 77° W 13:59:07 10° S
TSX-5 4.5 13:51:41 10° SW 13:56:07 86° SE 14:02:01 10° NE
CZ-4C R/B 4.4 13:53:42 10° N 13:56:55 37° WNW 14:00:02 10° SW
NOAA 6 4.2 13:52:35 10° SSE 13:57:46 84° WSW 14:02:58 10° NNW
Lacrosse 4 Rocket 2.9 13:56:20 10° SSE 13:59:13 19° ESE 14:02:07 10° ENE
Cosmos 1943 Rocket 3.6 13:55:07 10° W 14:00:08 31° NW 14:05:11 10° NNE
Meteor 1-28 Rocket 3.2 13:57:12 10° NNE 14:00:56 86° W 14:04:38 10° SSW
Cosmos 1455 2.9 13:58:06 10° SSW 14:01:48 54° WNW 14:05:29 10° N
Cosmos 1980 Rocket 3.9 13:59:29 10° SE 14:02:12 14° E 14:04:56 10° ENE
Cosmos 1862 4.0 13:58:46 10° N 14:02:21 31° ENE 14:05:56 10° SE
Cosmos 1238 Rocket 2.8 13:58:08 10° NNW 14:02:28 88° W 14:06:02 10° S
Cosmos 2297 Rocket 2.8 13:57:14 10° NW 14:02:51 65° WSW 14:08:26 10° SSE
Cosmos 2227 Rocket 2.7 13:57:59 10° NW 14:03:39 68° WSW 14:09:16 10° SSE
Cosmos 1633 3.1 14:01:39 10° N 14:05:05 36° ENE 14:08:28 10° SE
Cosmos 2344 3.7 14:00:46 10° SW 14:08:16 81° SE 14:17:06 10° NE
Cosmos 2233 Rocket 4.2 14:03:16 10° NNW 14:09:38 84° W 14:15:55 10° S
Cosmos 773 Rocket 4.1 14:08:20 10° SSW 14:13:27 64° ESE 14:18:39 10° NNE
Meteor 2-2 Rocket 4.4 14:08:37 10° S 14:14:13 55° E 14:19:47 10° NNE
Cosmos 1500 Rocket 4.5 14:13:09 10° NNW 14:17:26 53° W 14:21:39 10° S
Cosmos 2263 Rocket 2.7 14:12:38 10° NNW 14:17:49 38° NE 14:23:00 10° ESE
Cosmos 44 4.1 14:14:18 10° NW 14:18:14 29° NNE 14:21:39 12° ENE
Okean-O 3.0 14:14:38 10° SE 14:18:49 42° ENE 14:23:01 10° N
Feng Yun 1-1 Rocket 4.2 14:13:56 10° SSE 14:19:26 73° ENE 14:24:51 10° NNW
Cosmos 1633 Rocket 3.4 14:15:18 10° N 14:19:32 43° ENE 14:23:46 10° SE
NOSS 3-2 (C) 4.2 14:13:12 10° WNW 14:19:41 47° N 14:26:50 11° E
USA 215 3.3 14:14:35 10° E 14:21:08 81° N 14:27:41 10° W
CZ-4B R/B 2.3 14:18:18 10° N 14:21:36 51° WNW 14:24:58 10° SW
ATLAS 5 CENTAUR R/B 4.2 14:16:35 10° WNW 14:21:42 35° SW 14:27:28 10° S
Sich 1 3.0 14:19:37 10° N 14:23:59 70° ENE 14:28:21 10° SSE
Genesis I 3.3 14:21:30 10° SW 14:25:32 81° NW 14:29:08 13° NE
Cosmos 1151 Rocket 4.3 14:23:37 10° SE 14:26:50 20° E 14:30:05 10° NE
NOSS 7 (D) 4.3 14:27:08 10° WSW 14:29:53 52° NNW 14:31:56 15° NE
NOSS 8 (A) 4.2 14:27:54 10° SW 14:30:56 67° SE 14:33:13 17° ENE
USA 229 DEB 3.8 14:26:35 10° SSW 14:33:05 62° SE 14:39:18 13° NE
USA 229 3.8 14:26:43 10° SSW 14:33:12 61° SE 14:39:22 13° NE
Cosmos 2369 4.3 14:29:30 10° S 14:34:41 38° ESE 14:39:29 12° NE
Cosmos 2082 4.3 14:29:49 10° NW 14:35:23 62° WSW 14:40:55 10° SSE
Cosmos 1666 Rocket 3.5 14:31:16 10° N 14:35:39 68° ENE 14:39:58 10° SSE
ASTEX 1 3.7 14:30:40 10° N 14:35:42 74° W 14:40:40 10° SSW
NOSS 3-1 (C) 3.6 14:30:17 10° SSW 14:35:52 57° SE 14:41:34 14° NE
Cosmos 1624 Rocket 4.1 14:30:52 10° NNW 14:36:12 61° ENE 14:41:29 10° SE
Cosmos 1933 Rocket 4.3 14:32:36 10° N 14:36:28 30° ENE 14:40:19 10° SE
Cosmos 2056 Rocket 3.5 14:32:22 10° NNW 14:37:28 60° ENE 14:42:35 10° SE
Cosmos 923 Rocket 4.5 14:32:51 10° S 14:37:40 39° ESE 14:42:15 11° NE
Okean O Rocket 3.3 14:33:54 10° SSW 14:37:59 38° W 14:42:04 10° NNW
NOSS 3-1 (A) 3.9 14:33:08 10° SSW 14:38:29 43° SE 14:43:33 15° ENE
Cosmos 1697 Rocket 3.3 14:33:38 10° S 14:38:49 38° ESE 14:43:20 13° NE
Cosmos 1328 Rocket 4.5 14:35:27 10° SE 14:39:10 27° E 14:42:52 10° NNE
Cosmos 1891 Rocket 4.5 14:32:47 10° N 14:39:11 74° ENE 14:45:24 10° SSE
H-2A R/B 2.6 14:35:41 10° SSE 14:39:30 79° ENE 14:43:18 10° NNW
COSMO-SKYMED 1 3.9 14:37:57 15° NE 14:39:56 20° E 14:43:09 10° SE
Cosmos 1464 Rocket 3.9 14:33:57 10° N 14:40:09 74° ENE 14:46:17 10° SSE
Cosmos 1869 3.2 14:38:39 10° S 14:42:34 76° E 14:46:31 10° NNE
Cosmos 2221 3.1 14:38:49 10° SSW 14:43:06 60° WNW 14:47:28 10° N
SeaSat 1 2.4 14:42:51 10° SE 14:47:45 70° NE 14:52:41 10° NNW
Cosmos 1656 3.6 14:42:40 10° SSW 14:48:07 66° ESE 14:53:06 12° NE
ALOS 4.4 14:45:13 10° SSW 14:49:19 30° W 14:53:27 10° NNW
Cosmos 1538 Rocket 4.0 14:44:47 10° SSW 14:50:06 89° ESE 14:55:31 10° NNE
ERBS 2.9 14:47:35 10° SW 14:50:45 41° SSE 14:52:18 24° E
FengYun 1-2 T 4.3 14:46:19 10° SE 14:51:40 55° ENE 14:57:02 10° N
Cosmos 1072 Rocket 4.5 14:45:32 10° NNW 14:51:42 89° W 14:57:54 10° S
YAOGAN 6 3.0 14:48:42 10° SE 14:51:57 38° ENE 14:55:14 10° N
Cosmos 2278 4.2 14:47:07 10° S 14:52:21 39° ESE 14:56:18 17° NE
H-2A R/B 3.7 14:53:04 15° NE 14:53:04 15° NE 14:55:57 10° NNE
SMAP 3.4 14:48:34 10° S 14:53:13 71° WSW 14:57:54 10° NNW
Cosmos 1867 3.9 14:47:55 10° WSW 14:53:21 62° NW 14:57:47 16° NE
Meteor 2-11 Rocket 4.4 14:47:40 10° N 14:53:49 69° ENE 14:59:57 10° SSE
Elektron 3 4.0 14:52:26 10° WSW 14:55:21 60° NNW 14:56:55 25° NE
CENTAUR R/B 3.3 14:50:44 10° WNW 14:57:45 51° NNE 15:03:30 20° E
Cosmos 1844 Rocket 3.7 14:54:44 10° NNW 14:59:26 27° NNE 15:01:35 21° ENE
Cosmos 2278 Rocket 3.8 15:02:08 10° NNW 15:06:06 19° NNE 15:08:11 16° NE
Cosmos 1470 Rocket 3.5 15:02:33 10° N 15:07:03 67° ENE 15:11:31 10° SSE
Cosmos 44 Rocket 4.4 15:03:00 10° NW 15:07:11 29° NNE 15:08:59 22° NE
Cosmos 2227 4.2 15:02:07 10° NNW 15:07:56 81° NE 15:13:43 10° SE
Envisat 2.9 15:03:01 10° SSE 15:08:07 84° ENE 15:13:14 10° NNW
YAOGAN 1 2.8 15:04:56 10° SE 15:09:05 47° ENE 15:13:15 10° N
COBE Rocket 3.7 15:10:09 10° NNE 15:14:58 71° E 15:19:38 10° S
Cosmos 1356 Rocket 3.8 15:12:13 10° SSW 15:16:25 65° WNW 15:20:43 10° N
NOSS 2-3 (C) 4.2 15:12:57 10° SSW 15:17:18 47° SE 15:19:30 29° ENE
Cosmos 1420 Rocket 3.9 15:12:37 10° NNW 15:17:48 62° ENE 15:22:56 10° SE
CSL-04 Debris 4.1 15:12:46 10° SSE 15:18:11 64° ENE 15:23:38 10° NNW
NOAA 11 4.4 15:14:03 10° SE 15:19:14 48° ENE 15:24:29 10° N
ATLAS 3B R/B 3.1 15:14:20 10° WNW 15:20:45 47° NNE 15:24:05 27° ENE
USA 238 DEB 3.8 15:14:35 10° NW 15:21:39 69° NNE 15:26:35 22° ESE
USA 238 3.8 15:14:42 10° NW 15:21:45 69° NNE 15:26:39 22° ESE
Cosmos 158 Rocket 4.4 15:18:09 10° S 15:23:04 41° ESE 15:24:49 31° ENE
NOAA 15 4.5 15:19:45 10° SSE 15:25:02 72° ENE 15:30:19 10° NNW
NOSS 3-2 (A) 3.9 15:18:05 10° NW 15:25:05 68° NNE 15:30:17 23° ESE
Cosmos 1452 Rocket 3.5 15:20:40 10° NNW 15:25:56 60° ENE 15:29:44 19° SE
Cosmos 1869 Rocket 4.2 15:23:53 10° N 15:27:16 34° NE 15:27:16 34° NE
SKYMED 2 3.7 15:26:39 30° NE 15:28:28 49° E 15:32:41 10° S
Geosat 4.4 15:26:59 33° ENE 15:28:35 42° ESE 15:33:21 10° S
CZ-4 R/B 1.2 15:24:32 10° SSE 15:28:38 83° ENE 15:32:41 10° NNW
CSL-04 Rocket 3.5 15:23:52 10° SSE 15:29:11 73° ENE 15:34:29 10° NNW
Cosmos 1939 Rocket 3.1 15:32:04 45° E 15:32:23 46° ENE 15:36:20 10° N
Cosmos 1844 4.5 15:28:00 10° NNW 15:33:13 33° NE 15:34:17 31° NE
Cosmos 2369 Rocket 4.1 15:29:42 10° WNW 15:33:35 19° NNW 15:36:41 13° NNE
Meteor 1-20 Rocket 4.2 15:29:43 10° NNW 15:35:35 69° ENE 15:41:22 10° SSE
Lacrosse 4 Rocket 1.3 15:33:23 10° SW 15:37:26 77° NW 15:38:48 40° NNE
Meteor 1-25 Rocket 4.1 15:32:37 10° NNW 15:38:18 72° ENE 15:44:02 10° SSE
Cosmos 2034 Rocket 4.5 15:34:03 10° NNW 15:40:21 65° W 15:46:38 10° S
Cosmos 1933 3.6 15:39:44 10° S 15:43:06 49° SE 15:43:06 49° SE
GEOS 3 Rocket 3.9 15:44:01 41° E 15:45:03 46° SE 15:50:06 10° SSW
Cosmos 1980 Rocket 2.2 15:39:30 10° SSW 15:45:06 62° ESE 15:47:20 36° NE
Cosmos 1943 Rocket 4.1 15:41:56 10° NW 15:45:44 18° N 15:48:14 14° NNE
SL-16 R/B 3.8 15:41:16 10° SSE 15:43:15 18° SE 15:43:15 18° SE
Cosmos 2112 Rocket 3.9 15:42:04 10° SSW 15:47:17 84° ESE 15:50:05 29° NNE
Ariane Rocket 3.0 15:49:29 40° ESE 15:51:05 58° ENE 15:56:05 10° N
Cosmos 2322 Rocket 4.1 15:47:56 10° SSE 15:48:51 14° SSE 15:48:51 14° SSE
APEX 4.3 15:49:29 10° SSW 15:51:02 25° SSW 15:51:02 25° SSW
Cosmos 1680 Rocket 3.5 15:47:33 10° SSW 15:52:48 81° WNW 15:55:51 26° NNE
Timation 1 Rocket 4.5 15:46:58 10° NW 15:52:57 76° WSW 15:58:31 12° SSE
Okean-O 4.5 15:51:25 10° SSW 15:55:25 32° W 15:59:26 10° NNW
Cosmos 1634 Rocket 3.9 15:50:38 10° N 15:56:52 86° ENE 16:03:03 10° SSE
CZ-2D R/B 3.4 15:57:49 63° N 15:57:49 63° N 16:01:09 10° NNW
Cosmos 44 2.8 15:55:38 10° NW 16:00:03 75° NE 16:00:05 75° NE
Cosmos 2263 Rocket 2.5 15:56:36 10° NW 16:02:07 63° WSW 16:07:23 11° SSE
Cosmos 1151 Rocket 3.5 15:59:39 10° SSW 16:04:00 62° WNW 16:07:16 17° N
USA 215 3.2 16:01:35 40° ESE 16:04:13 86° SSW 16:10:47 10° WNW
Cosmos 2142 Rocket 4.4 16:00:39 10° N 16:07:06 81° ENE 16:13:29 10° SSE
NOSS 3-2 (C) 3.8 16:04:27 10° NW 16:11:34 76° NNE 16:14:17 45° ESE
Meteor 1-14 Rocket 4.3 16:07:59 10° NNW 16:14:01 90° W 16:20:01 10° SSE
Cosmos 2279 Rocket 3.8 16:07:47 10° N 16:14:03 75° ENE 16:17:58 24° SSE
Tsikada Rocket 4.1 16:08:34 10° SSW 16:15:00 79° WNW 16:21:28 10° N
Cosmos 2228 Rocket 3.5 16:11:42 10° S 16:15:06 52° S 16:15:06 52° S
COSMO-SKYMED 1 2.8 16:15:11 42° N 16:16:32 66° WNW 16:20:51 10° SSW
IRS-1A Rocket 4.2 16:14:21 38° SSE 16:16:40 81° ENE 16:22:31 10° NNW
Cosmos 2369 4.2 16:13:09 10° SW 16:18:44 56° NW 16:21:26 30° NNE
NOSS 2-3 (E) 3.9 16:15:32 10° SW 16:20:12 82° NW 16:20:45 71° NNE
Cosmos 371 Rocket 4.1 16:17:22 10° NNW 16:20:46 41° N 16:20:46 41° N
Cosmos 1515 Rocket 4.0 16:17:53 10° SSW 16:22:12 60° WNW 16:23:19 44° NNW
Cosmos 1697 Rocket 3.2 16:17:05 10° SW 16:22:39 56° NW 16:25:05 32° NNE
Cosmos 2344 4.2 16:15:45 10° W 16:23:26 56° N 16:27:32 34° NE
USA 229 DEB 4.0 16:17:33 10° WSW 16:24:13 60° NNW 16:26:44 39° NE
USA 229 4.0 16:17:40 10° WSW 16:24:18 60° NNW 16:26:49 39° NE
USA 116 4.2 16:24:31 70° N 16:25:03 82° WNW 16:30:11 10° SSW
SeaSat 1 4.4 16:21:29 10° SSW 16:25:40 27° WSW 16:29:54 10° NW
NOSS 3-1 (C) 3.9 16:20:53 10° WSW 16:26:49 59° NNW 16:28:57 42° NNE
ERBS 4.4 16:23:40 10° W 16:25:19 27° W 16:25:19 27° W
ARGOS 4.2 16:29:56 32° N 16:29:56 32° N 16:33:03 10° N
BREEZE-M DEB (TANK) 4.0 16:24:05 10° W 16:27:59 26° SW 16:27:59 26° SW
NOSS 3-1 (A) 3.7 16:23:12 10° WSW 16:29:08 69° NNW 16:31:00 48° NE
NOSS 2-3 (D) 3.9 16:25:17 10° WSW 16:29:57 77° NW 16:30:05 77° NNW
H-2A R/B 3.2 16:33:42 33° N 16:33:42 33° N 16:36:41 10° N
Cosmos 2278 4.3 16:30:47 10° SW 16:36:23 55° NW 16:38:14 39° N
Cosmos 1844 Rocket 2.9 16:38:36 10° NNW 16:43:16 61° NNW 16:43:16 61° NNW
Cosmos 2180 Rocket 4.4 16:38:18 10° NNW 16:44:30 87° W 16:45:23 68° S
MOS 1 4.3 16:48:40 79° WSW 16:48:42 79° WSW 16:54:25 10° NNW
CENTAUR R/B 3.0 16:41:42 10° NW 16:49:21 85° NE 16:50:42 66° ESE
Cosmos 44 Rocket 4.5 16:44:49 10° NW 16:47:42 34° NNW 16:47:42 34° NNW
Cosmos 2278 Rocket 3.5 16:46:36 10° NNW 16:50:01 29° N 16:50:01 29° N
CZ-4 R/B 4.4 17:01:52 10° WSW 17:04:13 15° W 17:06:31 10° NW
ATLAS 3B R/B 2.7 17:05:23 10° NW 17:11:21 73° NW 17:11:21 73° NW
USA 238 DEB 4.4 17:05:44 10° NW 17:12:34 50° SW 17:14:03 44° SSW
USA 238 4.4 17:05:50 10° NW 17:12:41 51° SW 17:14:08 45° SSW
NOSS 3-2 (A) 4.4 17:09:01 10° NW 17:16:06 55° SW 17:17:42 48° SSW
Lacrosse 4 Rocket 4.0 17:13:29 10° W 17:15:07 18° WNW 17:15:07 18° WNW
Cosmos 2369 Rocket 4.3 17:15:55 10° NNW 17:18:27 17° N 17:18:27 17° N
SL-16 R/B 4.2 17:23:41 10° SW 17:25:11 19° SW 17:25:11 19° SW
Cosmos 1980 Rocket 3.4 17:24:08 10° WSW 17:29:08 39° NW 17:29:08 39° NW
Cosmos 1943 Rocket 4.3 17:27:26 10° NNW 17:29:44 18° N 17:29:44 18° N
USA 215 4.1 17:48:56 42° WSW 17:48:56 42° WSW 17:53:58 10° WNW
H-2A R/B 4.5 18:14:20 18° NW 18:14:20 18° NW 18:15:57 10° NNW
Cosmos 2344 4.5 18:31:05 10° WNW 18:37:32 53° NNW 18:37:32 53° NNW
CENTAUR R/B 4.2 18:32:35 10° NW 18:37:54 36° W 18:37:54 36° W
